Date String (YYYY-MM-DD hh:mm:ss) UTC,Instrument flags,Ambient pressure (hPa),Sample flow (lpm),Bypass flow (lpm),Sample temperature (°C),Ambient temperature (°C),ASC tube jacket temperature (°C),LED temperature (°C),Box temperature (°C),Sample RH (%),Span deviation,Mass concentration (μg/m³),Mass concentration (μg/m³),Mass concentration (μg/m³)
DateTimeUTC,F1_M11,P_M11,Q1_M11,Q2_M11,T1_M11,T2_M11,T3_M11,T4_M11,T5_M11,U1_M11,ZSPAN_M11,X0_M11,X2_M11,X1_M11
2022-01-21 18:00:00,,0828.6,5.00,0.00,22.7,22.9,00.0,31.5,24.7,14.2,-000.8,0011.55,0006.37,0005.90
2022-01-21 18:01:00,,0828.7,5.01,0.00,22.7,22.8,00.0,31.5,24.6,14.3,-000.7,0011.32,0006.34,0005.90
2022-01-21 18:02:00,,0828.7,5.00,0.00,22.7,22.7,00.0,31.5,24.6,14.2,-001.0,0011.21,0006.34,0005.89
2022-01-21 18:03:00,,0829.3,5.00,0.00,22.7,22.5,00.0,31.5,24.6,13.5,-001.4,0011.27,0006.39,0005.91
2022-01-21 18:04:00,,0829.3,5.00,0.00,22.7,22.5,00.0,31.5,24.6,13.5,-001.8,0011.31,0006.49,0006.01
2022-01-21 18:05:00,,0828.9,5.00,0.00,22.7,22.4,00.0,31.6,24.6,13.6,-001.5,0010.73,0006.53,0006.09
2022-01-21 18:06:00,,0829.0,5.01,0.00,22.7,22.3,00.0,31.6,24.5,13.9,-001.6,0010.95,0006.42,0006.00
2022-01-21 18:07:00,,0829.1,4.99,0.00,22.7,22.3,00.0,31.6,24.5,12.8,-001.5,0011.03,0006.34,0005.96
2022-01-21 18:08:00,,0829.3,5.01,0.00,22.7,22.2,00.0,31.6,24.5,12.4,-001.8,0010.83,0006.34,0005.99
2022-01-21 18:09:00,,0829.2,5.00,0.00,22.7,22.2,00.0,31.6,24.5,13.1,-002.0,0010.35,0006.39,0006.01
2022-01-21 18:10:00,,0829.3,4.99,0.00,22.7,22.1,00.0,31.6,24.5,13.4,-002.1,0010.43,0006.46,0006.05
2022-01-21 18:11:00,,0829.1,5.01,0.00,22.7,22.1,00.0,31.6,24.5,13.5,-001.6,0010.54,0006.53,0006.11
2022-01-21 18:12:00,,0828.9,4.99,0.00,22.7,22.1,00.0,31.6,24.5,13.1,-001.3,0010.77,0006.66,0006.23
2022-01-21 18:13:00,,0829.0,5.01,0.00,22.7,22.1,00.0,31.6,24.5,13.0,-001.3,0010.99,0006.81,0006.40
2022-01-21 18:14:00,,0828.9,4.98,0.00,22.7,22.1,00.0,31.6,24.5,13.2,-001.4,0011.35,0006.93,0006.55
2022-01-21 18:15:00,,0828.8,5.01,0.00,22.7,22.0,00.0,31.6,24.5,12.9,-001.0,0011.57,0007.05,0006.65
2022-01-21 18:16:00,,0828.8,5.00,0.00,22.7,22.0,00.0,31.6,24.4,12.4,-000.9,0011.81,0007.18,0006.77
2022-01-21 18:17:00,,0828.8,4.99,0.00,22.7,22.0,00.0,31.6,24.4,12.0,-001.0,0011.56,0007.35,0006.94
2022-01-21 18:18:00,,0828.9,5.01,0.00,22.7,22.0,00.0,31.6,24.4,13.0,-001.1,0011.55,0007.52,0007.10
2022-01-21 18:19:00,,0828.9,4.99,0.00,22.6,21.9,00.0,31.6,24.4,14.2,-001.3,0012.02,0007.67,0007.24
2022-01-21 18:20:00,,0828.9,5.01,0.00,22.6,21.9,00.0,31.6,24.4,13.6,-001.3,0012.85,0007.79,0007.39
2022-01-21 18:21:00,,0829.0,4.99,0.00,22.6,21.9,00.0,31.6,24.4,13.1,-001.5,0013.43,0007.91,0007.54
2022-01-21 18:22:00,,0828.9,5.02,0.00,22.6,21.9,00.0,31.6,24.4,12.7,-001.7,0013.55,0008.05,0007.71
2022-01-21 18:23:00,,0829.0,4.98,0.00,22.6,21.9,00.0,31.6,24.4,12.4,-001.9,0013.63,0008.19,0007.88
2022-01-21 18:24:00,,0829.0,5.01,0.00,22.6,21.9,00.0,31.5,24.4,12.3,-001.8,0013.66,0008.24,0007.95
2022-01-21 18:25:00,,0829.0,4.99,0.00,22.6,21.9,00.0,31.5,24.4,12.0,-001.7,0013.80,0008.32,0008.02
2022-01-21 18:26:00,,0828.9,5.00,0.00,22.6,21.9,00.0,31.5,24.3,11.9,-001.8,0013.68,0008.38,0008.09
2022-01-21 18:27:00,,0829.0,5.01,0.00,22.6,21.9,00.0,31.5,24.3,12.1,-001.9,0013.62,0008.41,0008.14
2022-01-21 18:28:00,,0828.9,4.99,0.00,22.6,21.9,00.0,31.5,24.2,12.9,-001.9,0013.71,0008.45,0008.18
2022-01-21 18:29:00,,0829.0,5.02,0.00,22.5,21.9,00.0,31.5,24.2,12.4,-001.9,0013.71,0008.46,0008.19
2022-01-21 18:30:00,,0829.0,4.99,0.00,22.5,21.8,00.0,31.5,24.2,12.0,-001.7,0013.22,0008.38,0008.13
2022-01-21 18:31:00,,0829.0,5.00,0.00,22.5,21.8,00.0,31.5,24.1,12.4,-001.7,0012.76,0008.34,0008.10
2022-01-21 18:32:00,,0829.0,4.99,0.00,22.5,21.8,00.0,31.5,24.1,14.4,-001.6,0012.14,0008.44,0008.18
2022-01-21 18:33:00,,0829.0,5.00,0.00,22.4,21.7,00.0,31.5,24.0,15.9,-001.6,0012.56,0008.75,0008.46
2022-01-21 18:34:00,,0829.0,5.01,0.00,22.3,21.6,00.0,31.5,23.9,16.0,-001.5,0013.06,0009.04,0008.73
2022-01-21 18:35:00,,0829.0,4.99,0.00,22.3,21.5,00.0,31.4,23.9,16.1,-001.6,0013.58,0009.36,0008.99
2022-01-21 18:36:00,,0829.0,5.00,0.00,22.2,21.4,00.0,31.4,23.8,16.2,-001.7,0013.83,0009.64,0009.22
2022-01-21 18:37:00,,0828.9,5.00,0.00,22.2,21.3,00.0,31.4,23.8,16.0,-001.6,0014.05,0009.78,0009.32
2022-01-21 18:38:00,,0828.8,5.00,0.00,22.1,21.3,00.0,31.3,23.8,16.0,-001.7,0014.22,0009.86,0009.39
2022-01-21 18:39:00,,0829.2,5.02,0.00,22.1,21.3,00.0,31.3,23.7,15.5,-001.7,0014.32,0009.95,0009.45
2022-01-21 18:40:00,,0829.2,4.98,0.00,22.0,21.3,00.0,31.3,23.7,14.9,-001.7,0014.45,0010.02,0009.53
2022-01-21 18:41:00,,0828.8,5.00,0.00,22.1,21.8,00.0,31.3,23.8,14.1,-001.7,0015.17,0010.07,0009.56
2022-01-21 18:42:00,,0828.7,5.00,0.00,22.3,22.7,00.0,31.3,24.2,13.9,-001.9,0015.46,0010.15,0009.65
2022-01-21 18:43:00,,0828.8,5.00,0.00,22.4,23.1,00.0,31.4,24.3,13.4,-002.0,0016.39,0010.18,0009.68
2022-01-21 18:44:00,,0828.7,5.00,0.00,22.4,22.8,00.0,31.4,24.3,13.3,-002.0,0016.30,0009.94,0009.45
2022-01-21 18:45:00,,0828.9,5.01,0.00,22.4,22.5,00.0,31.4,24.2,13.2,-002.1,0015.95,0009.72,0009.24
2022-01-21 18:46:00,,0829.1,4.99,0.00,22.3,22.3,00.0,31.3,24.0,13.5,-002.1,0015.61,0009.52,0009.07
2022-01-21 18:47:00,,0829.4,5.01,0.00,22.3,22.1,00.0,31.3,23.9,14.1,-001.9,0015.31,0009.36,0008.97
2022-01-21 18:48:00,,0829.3,4.99,0.00,22.3,21.9,00.0,31.3,23.9,14.4,-001.9,0015.29,0009.38,0009.00
2022-01-21 18:49:00,,0829.2,5.02,0.00,22.2,21.8,00.0,31.3,23.9,14.6,-002.0,0015.39,0009.50,0009.14
2022-01-21 18:50:00,,0829.2,4.99,0.00,22.2,21.7,00.0,31.3,23.8,15.1,-002.0,0015.52,0009.61,0009.28
2022-01-21 18:51:00,,0829.2,5.00,0.00,22.2,21.6,00.0,31.3,23.8,15.6,-002.1,0015.62,0009.74,0009.43
2022-01-21 18:52:00,,0828.8,5.01,0.00,22.1,21.5,00.0,31.3,23.8,15.6,-002.3,0015.36,0009.97,0009.63
2022-01-21 18:53:00,,0828.9,5.00,0.00,22.1,21.5,00.0,31.3,23.8,15.4,-002.2,0015.39,0010.12,0009.77
2022-01-21 18:54:00,,0828.9,4.99,0.00,22.1,21.5,00.0,31.2,23.8,15.6,-002.0,0015.08,0010.21,0009.86
2022-01-21 18:55:00,,0828.9,5.00,0.00,22.1,21.4,00.0,31.2,23.7,15.2,-002.0,0015.56,0010.30,0009.93
2022-01-21 18:56:00,,0829.0,5.00,0.00,22.1,21.4,00.0,31.2,23.7,14.6,-002.1,0015.67,0010.33,0009.95
2022-01-21 18:57:00,,0828.9,5.01,0.00,22.0,21.3,00.0,31.2,23.6,14.6,-002.2,0015.69,0010.33,0009.96
2022-01-21 18:58:00,,0828.9,4.98,0.00,22.0,21.3,00.0,31.2,23.6,14.8,-002.3,0015.69,0010.31,0009.91
2022-01-21 18:59:00,,0828.9,5.00,0.00,22.0,21.3,00.0,31.1,23.6,14.7,-002.3,0015.57,0010.19,0009.78
